Welcome to the New NWS' Forecast!
Most changes are behind the scenes, but click here for differences you might notice.
Latest weather observations around

AD6NH Orange (AP541)

Using English Units (Switch to International System of Units)
Date/ Time (PST) Wind (mph) Vis. (mi) Weather Sky Cond. Temp (°F) Rel. Humidity Wind Chill (°F) Heat Index (°F) Pressure Precip. (in)
Air Dwpt 6 hour Altimeter (inHg) Sea level (inHg) 1 hr 3 hr 6 hr
Max Min
Nov 18 00:14 Calm   Clear   59 57     93%     30.14        
Nov 17 23:59 Calm   Clear   59 57     92%     30.13        
Nov 17 23:44 Calm   Clear   59 57     93%     30.13        
Nov 17 23:29 Calm   Clear   60 58     92%     30.14        
Nov 17 23:14 Calm   Clear   60 58     92%     30.14        
Nov 17 22:59 Calm   Clear   60 58     92%     30.14        
Nov 17 22:44 Calm   Clear   61 59     92%     30.13        
Nov 17 22:29 Calm   Clear   61 59     92%     30.13        
Nov 17 22:14 Calm   Clear   61 59     92%     30.13        
Nov 17 21:59 Calm   Clear   61 59     92%     30.13        
Nov 17 21:44 Calm   Clear   61 59     92%     30.13        
Nov 17 21:29 Calm   Clear   62 60     92%     30.12        
Nov 17 21:14 Calm   Clear   62 60     92%     30.12        
Nov 17 20:58 Calm   Clear   62 60     92%     30.11        
Nov 17 20:43 Calm   Clear   62 59     91%     30.11        
Nov 17 20:28 Calm   Clear   62 59     91%     30.11        
Nov 17 20:13 Calm   Clear   62 59     91%     30.1        
Nov 17 19:58 Calm   Clear   62 59     91%     30.1        
Nov 17 19:45 Calm   Clear   62 59     90%     30.09        
Nov 17 19:37 Calm   Clear   63 60     90%     30.08        
Nov 17 19:22 Calm   Clear   63 60     90%     30.08        
Nov 17 18:58 Calm   Clear   63 60     89%     30.08        
Nov 17 18:43 Calm   Clear   63 60     89%     30.08        
Nov 17 18:28 SSW 1   Clear   64 60     88%     30.07        
Nov 17 18:14 Calm   Clear   64 60     88%     30.07        
Nov 17 17:58 WSW 1   Clear   64 60     87%     30.06        
Nov 17 17:43 WSW 3   Clear   64 60     86%     30.06        
Nov 17 17:28 SW 1   Clear   65 60     85%     30.06        
Nov 17 17:13 SW 1   Clear   65 60     83%     30.05        
Nov 17 16:59 Calm   Clear   66 60     82%     30.05        
Nov 17 16:43 SSE 1   Clear   67 61     81%     30.04        
Nov 17 16:28 WSW 1   Clear   67 60     79%     30.04        
Nov 17 16:13 Calm   Clear   68 61     78%     30.04        
Nov 17 15:58 WSW 3   Clear   68 61     77%     30.04        
Nov 17 15:43 WSW 3   Clear   70 61     73%     30.05        
Nov 17 15:28 W 1   Clear   69 61     75%     30.04        
Nov 17 15:13 SW 2   Clear   70 61     73%     30.04        
Nov 17 14:58 WSW 4   Clear   72 61     68%   72 30.04        
Nov 17 14:43 WSW 1   Clear   72 62     71%   72 30.05        
Nov 17 14:28 WSW 2   Clear   73 62     68%   73 30.04        
Nov 17 14:13 SSW 5   Clear   73 61     65%   73 30.04        
Nov 17 13:58 SSW 3   Clear   74 61     64%   74 30.04        
Nov 17 13:43 SW 3   Clear   74 61     63%   74 30.04        
Nov 17 13:29 WNW 3   Clear   74 60     62%   74 30.05        
Nov 17 13:13 S 2   Clear   75 60     60%   75 30.05        
Nov 17 12:58 SSW 2   Clear   74 60     61%   74 30.04        
Nov 17 12:43 WNW 1   Clear   74 61     64%   74 30.05        
Nov 17 12:28 NNE 1   Clear   73 61     65%   73 30.06        
Nov 17 12:13 Calm   Clear   72 60     66%   72 30.07        
Nov 17 11:58 W 2   Clear   72 60     65%   72 30.07        
Nov 17 11:43 NNW 1   Clear   72 59     64%   72 30.08        
Nov 17 11:28 Calm   Clear   72 60     65%   72 30.09        
Nov 17 11:13 Calm   Clear   72 60     67%   72 30.09        
Nov 17 10:58 WSW 1   Clear   72 60     67%   72 30.1        
Nov 17 10:43 Calm   Clear   70 61     74%     30.1        
Nov 17 10:28 N 2   Clear   69 61     75%     30.1        
Nov 17 10:13 NW 1   Clear   69 61     77%     30.11        
Nov 17 09:58 N 1   Clear   68 61     78%     30.11        
Nov 17 09:43 NNW 1   Clear   68 61     78%     30.11        
Nov 17 09:28 NNW 1   Clear   67 61     80%     30.11        
Nov 17 09:13 Calm   Clear   66 60     82%     30.11        
Nov 17 08:58 Calm   Clear   64 60     88%     30.11        
Nov 17 08:42 Calm   Clear   63 60     89%     30.11        
Nov 17 08:27 Calm   Clear   63 60     89%     30.11        
Nov 17 08:12 Calm   Clear   63 60     89%     30.1        
Nov 17 07:57 Calm   Clear   62 58     88%     30.1        
Nov 17 07:43 Calm   Clear   62 58     88%     30.09        
Nov 17 07:27 Calm   Clear   62 58     88%     30.09        
Nov 17 07:12 Calm   Clear   62 58     88%     30.08        
Nov 17 06:57 Calm   Clear   62 58     88%     30.08        
Nov 17 06:43 Calm   Clear   62 58     88%     30.06        
Nov 17 06:27 Calm   Clear   62 58     88%     30.05        
Nov 17 06:12 Calm   Clear   62 58     88%     30.04        
Nov 17 05:57 Calm   Clear   62 58     88%     30.03        
Nov 17 05:42 Calm   Clear   62 58     88%     30.04        
Nov 17 05:27 Calm   Clear   62 58     88%     30.03        
Nov 17 05:12 Calm   Clear   62 58     87%     30.03        
Nov 17 04:57 Calm   Clear   62 58     86%     30.03        
Nov 17 04:42 Calm   Clear   62 57     85%     30.03        
Nov 17 04:27 Calm   Clear   62 57     85%     30.03        
Nov 17 04:12 Calm   Clear   62 57     84%     30.02        
Nov 17 03:57 Calm   Clear   63 58     83%     30.02        
Nov 17 03:42 Calm   Clear   63 57     81%     30.02        
Nov 17 03:27 Calm   Clear   63 57     80%     30.01        
Nov 17 03:12 Calm   Clear   64 57     78%     30.02        
Nov 17 02:57 Calm   Clear   64 57     77%     30.01        
Nov 17 02:42 Calm   Clear   63 55     76%     30.02        
Nov 17 02:27 Calm   Clear   63 55     76%     30.01        
Nov 17 02:12 Calm   Clear   63 56     77%     30.01        
Nov 17 01:57 Calm   Clear   63 56     77%     30.01        
Nov 17 01:42 Calm   Clear   63 55     76%     30.01        
Nov 17 01:27 Calm   Clear   63 55     76%     30.01        
Nov 17 01:12 Calm   Clear   63 55     76%     30        
Nov 17 00:57 Calm   Clear   63 55     75%     30        
Nov 17 00:42 Calm   Clear   63 55     75%     29.99        
Nov 17 00:26 Calm   Clear   63 55     75%     29.98        
Nov 17 00:11 Calm   Clear   63 55     74%     29.99        
Nov 16 23:56 Calm   Clear   64 55     73%     30        
Nov 16 23:42 Calm   Clear   64 55     73%     30        
Nov 16 23:26 Calm   Clear   64 55     72%     30        
Nov 16 23:11 Calm   Clear   64 54     71%     29.99        
Nov 16 22:57 Calm   Clear   65 56     72%     30        
Nov 16 22:42 Calm   Clear   65 56     72%     30        
Nov 16 22:26 Calm   Clear   65 55     71%     30.01        
Nov 16 22:12 Calm   Clear   65 55     70%     30.01        
Nov 16 21:56 Calm   Clear   65 55     69%     30.01        
Nov 16 21:41 Calm   Clear   66 55     68%     30.01        
Nov 16 21:26 Calm   Clear   66 55     67%     30.01        
Nov 16 21:11 Calm   Clear   66 54     66%     30.01        
Nov 16 20:56 Calm   Clear   67 54     64%     30        
Nov 16 20:41 Calm   Clear   67 54     64%     30.01        
Nov 16 20:26 Calm   Clear   67 54     63%     30        
Nov 16 20:11 Calm   Clear   67 54     63%     30        
Nov 16 19:56 Calm   Clear   67 53     61%     29.99        
Nov 16 19:43 Calm   Clear   68 54     60%     29.99        
Nov 16 19:34 Calm   Clear   68 53     58%     29.99        
Nov 16 19:16 Calm   Clear   69 53     56%     30        
Nov 16 18:56 Calm   Clear   69 53     56%     29.99        
Nov 16 18:41 Calm   Clear   70 53     54%     29.99        
Nov 16 18:26 Calm   Clear   70 52     52%     29.99        
Nov 16 18:11 Calm   Clear   70 50     50%     29.98        
Nov 16 17:56 Calm   Clear   71 51     49%   70 29.98        
Nov 16 17:26 Calm   Clear   71 51     50%   70 29.97        
Nov 16 17:11 Calm   Clear   71 56     60%   71 29.97        
Nov 16 16:56 Calm   Clear   71 56     59%   71 29.96        
Nov 16 16:41 Calm   Clear   72 55     56%   72 29.95        
Nov 16 16:26 Calm   Clear   72 54     53%   71 29.95        
Nov 16 16:11 Calm   Clear   73 54     51%   72 29.94        
Nov 16 15:56 Calm   Clear   73 54     51%   72 29.94        
Nov 16 15:41 SSW 1   Clear   74 55     51%   73 29.94        
Nov 16 15:26 SW 1   Clear   74 54     50%   73 29.94        
Nov 16 15:11 SW 1   Clear   75 54     48%   74 29.95        
Nov 16 14:56 WSW 2   Clear   76 55     48%   76 29.94        
Nov 16 14:41 WSW 2   Clear   77 53     44%   76 29.94        
Nov 16 14:26 S 1   Clear   78 52     41%   77 29.94        
Nov 16 14:11 Calm   Clear   79 53     40%   78 29.94        
Nov 16 13:56 Calm   Clear   79 53     40%   78 29.95        
Nov 16 13:41 SW 1   Clear   80 53     39%   80 29.95        
Nov 16 13:26 Calm   Clear   80 52     38%   79 29.95        
Nov 16 13:11 W 1   Clear   80 51     37%   79 29.96        
Nov 16 12:56 SW 1   Clear   79 50     37%   78 29.96        
Nov 16 12:41 SSE 1   Clear   78 52     41%   77 29.96        
Nov 16 12:26 Calm   Clear   77 52     42%   76 29.97        
Nov 16 12:11 SSW 1   Clear   77 52     42%   76 29.98        
Nov 16 11:56 WSW 2   Clear   77 53     43%   76 29.98        
Nov 16 11:41 Calm   Clear   77 53     44%   76 29.98        
Nov 16 11:26 SW 1   Clear   75 52     45%   74 29.99        
Nov 16 11:11 Calm   Clear   75 53     46%   74 29.99        
Nov 16 10:56 Calm   Clear   75 53     46%   74 30        
Nov 16 10:41 Calm   Clear   74 53     48%   73 30.01        
Nov 16 10:26 WNW 1   Clear   72 52     50%   71 30.01        
Nov 16 10:11 Calm   Clear   72 53     52%   71 30.01        
Nov 16 09:55 NW 1   Clear   71 54     55%   70 30.01        
Nov 16 09:40 Calm   Clear   69 54     59%     30.01        
Nov 16 09:25 SSW 1   Clear   68 54     60%     30.01        
Nov 16 09:10 Calm   Clear   67 54     62%     30        
Nov 16 08:56 Calm   Clear   65 52     63%     29.99        
Nov 16 08:41 Calm   Clear   64 52     64%     30        
Nov 16 08:25 Calm   Clear   63 53     70%     30        
Nov 16 08:10 Calm   Clear   61 53     74%     30        
Nov 16 07:55 Calm   Clear   61 53     76%     29.99        
Nov 16 07:40 Calm   Clear   59 52     77%     29.99        
Nov 16 07:25 Calm   Clear   59 51     75%     29.99        
Nov 16 07:10 Calm   Clear   58 50     75%     29.98        
Nov 16 06:55 Calm   Clear   58 50     74%     29.98        
Nov 16 06:40 Calm   Clear   58 50     75%     29.98        
Nov 16 06:25 Calm   Clear   57 50     77%     29.97        
Nov 16 06:10 Calm   Clear   56 50     79%     29.97        
Nov 16 05:55 Calm   Clear   56 50     81%     29.96        
Nov 16 05:40 Calm   Clear   55 50     82%     29.96        
Nov 16 05:25 Calm   Clear   55 49     81%     29.96        
Nov 16 05:10 Calm   Clear   55 49     81%     29.96        
Nov 16 04:55 Calm   Clear   55 49     81%     29.96        
Nov 16 04:39 Calm   Clear   55 49     80%     29.96        
Nov 16 04:25 Calm   Clear   55 49     81%     29.95        
Nov 16 04:09 Calm   Clear   56 51     82%     29.96        
Nov 16 03:54 Calm   Clear   56 51     82%     29.96        
Nov 16 03:39 Calm   Clear   56 51     82%     29.96        
Nov 16 03:24 Calm   Clear   56 50     81%     29.96        
Nov 16 03:09 Calm   Clear   57 51     80%     29.96        
Nov 16 02:54 Calm   Clear   57 51     80%     29.96        
Nov 16 02:39 Calm   Clear   57 51     79%     29.96        
Nov 16 02:24 Calm   Clear   58 51     78%     29.97        
Nov 16 02:09 Calm   Clear   58 51     77%     29.97        
Nov 16 01:54 Calm   Clear   58 50     76%     29.97        
Nov 16 01:39 Calm   Clear   58 50     76%     29.98        
Nov 16 01:24 Calm   Clear   58 51     77%     29.98        
Nov 16 01:09 Calm   Clear   58 51     78%     29.98        
Nov 16 00:54 Calm   Clear   58 52     81%     29.98        
Nov 16 00:39 Calm   Clear   58 53     83%     29.98        
Nov 16 00:24 Calm   Clear   59 54     85%     29.99        
Nov 16 00:09 Calm   Clear   59 55     86%     30        
Nov 15 23:54 Calm   Clear   59 54     85%     30.01        
Nov 15 23:39 Calm   Clear   59 54     85%     30.01        
Nov 15 23:24 Calm   Clear   60 55     84%     30        
Nov 15 23:09 Calm   Clear   60 55     84%     30.01        
Nov 15 22:54 Calm   Clear   61 56     84%     30.01        
Nov 15 22:39 Calm   Clear   61 56     84%     30.01        
Nov 15 22:24 Calm   Clear   61 56     83%     30        
Nov 15 22:09 Calm   Clear   61 56     83%     29.99        
Nov 15 21:54 Calm   Clear   62 57     83%     29.99        
Nov 15 21:39 Calm   Clear   62 56     82%     30        
Nov 15 21:24 Calm   Clear   62 56     81%     30        
Nov 15 21:09 Calm   Clear   63 57     80%     30.01        
Nov 15 20:54 Calm   Clear   63 56     79%     30        
Nov 15 20:39 Calm   Clear   64 57     78%     30        
Nov 15 20:24 Calm   Clear   64 57     77%     30        
Nov 15 20:09 Calm   Clear   64 56     76%     29.99        
Nov 15 19:54 Calm   Clear   64 56     75%     29.99        
Nov 15 19:39 Calm   Clear   65 56     74%     29.98        
Nov 15 19:25 Calm   Clear   65 56     74%     29.99        
Nov 15 19:09 Calm   Clear   65 56     73%     29.98        
Nov 15 18:54 Calm   Clear   65 56     72%     29.98        
Nov 15 18:39 Calm   Clear   65 56     72%     29.98        
Nov 15 18:24 Calm   Clear   66 56     70%     29.98        
Nov 15 18:09 Calm   Clear   66 55     68%     29.99        
Nov 15 17:54 Calm   Clear   67 56     67%     29.98        
Nov 15 17:39 Calm   Clear   68 56     65%     29.98        
Nov 15 17:24 Calm   Clear   68 55     64%     29.98        
Nov 15 17:09 Calm   Clear   69 55     62%     29.97        
Nov 15 16:54 Calm   Clear   70 55     60%     29.97        
Nov 15 16:39 Calm   Clear   71 55     57%   70 29.96        
Nov 15 16:24 Calm   Clear   72 55     55%   71 29.96        
Nov 15 16:09 WSW 2   Clear   73 53     50%   72 29.96        
Nov 15 15:54 Calm   Clear   74 54     49%   73 29.96        
Nov 15 15:39 WSW 3   Clear   74 54     50%   73 29.96        
Nov 15 15:24 WSW 2   Clear   74 55     52%   74 29.96        
Nov 15 15:09 Calm   Clear   75 56     52%   75 29.96        
Nov 15 14:54 WSW 2   Clear   75 57     53%   75 29.96        
Nov 15 14:38 Calm   Clear   76 57     51%   76 29.95        
Nov 15 14:23 SSW 2   Clear   77 56     49%   77 29.96        
Nov 15 14:08 WNW 1   Clear   78 55     45%   78 29.96        
Nov 15 13:54 W 2   Clear   79 55     43%   79 29.96        
Nov 15 13:39 SW 1   Clear   77 53     43%   76 29.95        
Nov 15 13:23 Calm   Clear   77 53     43%   76 29.95        
Nov 15 13:08 Calm   Clear   75 52     45%   74 29.96        
Nov 15 12:53 Calm   Clear   75 52     45%   74 29.96        
Nov 15 12:38 SW 1   Clear   75 52     44%   74 29.97        
Nov 15 12:23 Calm   Clear   75 52     45%   74 29.97        
Nov 15 12:08 Calm   Clear   74 54     49%   73 29.98        
Nov 15 11:53 Calm   Clear   73 54     51%   72 29.99        
Nov 15 11:38 SW 2   Clear   72 53     51%   71 30        
Nov 15 11:23 Calm   Clear   72 54     54%   71 30        
Nov 15 11:08 Calm   Clear   71 54     54%   70 30.01        
Nov 15 10:53 Calm   Clear   70 54     57%     30.02        
Nov 15 10:38 WSW 1   Clear   69 53     56%     30.03        
Nov 15 10:23 SW 2   Clear   68 52     57%     30.02        
Nov 15 10:08 Calm   Clear   68 52     57%     30.01        
Nov 15 09:53 SW 1   Clear   68 52     56%     30.02        
Nov 15 09:38 SW 1   Clear   68 52     56%     30.01        
Nov 15 09:23 SW 1   Clear   67 51     57%     30.02        
Nov 15 09:08 Calm   Clear   68 52     57%     30.02        
Nov 15 08:52 Calm   Clear   66 53     62%     30.01        
Nov 15 08:37 Calm   Clear   63 53     69%     30.01        
Nov 15 08:22 Calm   Clear   60 52     76%     30.01        
Nov 15 08:08 Calm   Clear   60 52     76%     30.01        
Nov 15 07:53 Calm   Clear   59 52     77%     30.01        
Nov 15 07:37 Calm   Clear   58 51     77%     30.01        
Nov 15 07:22 Calm   Clear   57 50     76%     30.01        
Nov 15 07:07 Calm   Clear   57 49     75%     30.01        
Nov 15 06:52 Calm   Clear   57 49     75%     30.01        
Nov 15 06:37 Calm   Clear   56 48     74%     30        
Nov 15 06:22 Calm   Clear   56 49     76%     29.99        
Nov 15 06:08 Calm   Clear   56 49     77%     30        
Nov 15 05:52 Calm   Clear   56 50     79%     29.99        
Nov 15 05:37 Calm   Clear   56 49     78%     29.99        
Nov 15 05:23 Calm   Clear   56 49     78%     29.99        
Nov 15 05:07 Calm   Clear   56 49     78%     29.99        
Nov 15 04:52 Calm   Clear   56 49     78%     29.98        
Nov 15 04:37 Calm   Clear   56 49     77%     29.98        
Nov 15 04:22 Calm   Clear   56 49     76%     29.98        
Nov 15 04:07 Calm   Clear   57 50     76%     29.98        
Nov 15 03:52 Calm   Clear   57 49     75%     29.97        
Nov 15 03:37 Calm   Clear   58 50     75%     29.98        
Nov 15 03:22 Calm   Clear   57 50     76%     29.97        
Nov 15 03:07 Calm   Clear   57 50     76%     29.98        
Nov 15 02:52 Calm   Clear   56 49     76%     29.98        
Nov 15 02:37 Calm   Clear   57 50     77%     29.99        
Nov 15 02:22 Calm   Clear   57 50     78%     29.99        
Nov 15 02:07 Calm   Clear   57 51     79%     29.99        
Nov 15 01:52 Calm   Clear   57 51     80%     30        
Nov 15 01:37 Calm   Clear   57 51     81%     30        
Nov 15 01:22 Calm   Clear   57 52     82%     30.01        
Nov 15 01:07 Calm   Clear   57 52     83%     30.01        
Nov 15 00:52 Calm   Clear   56 51     83%     30.02        
Nov 15 00:37 Calm   Clear   56 51     82%     30.02        
Nov 15 00:21 Calm   Clear   57 52     82%     30.02        
Nov 14 23:21 Calm   Clear   58 52     81%     30.02        
Jun 12 04:08 Calm   Clear   57 52     82%              
Jun 11 21:52 SSW 2   Clear   63 55     74%     29.99        
Jun 11 21:22 SW 2   Clear   63 55     74%     29.98        
Jun 11 21:07 WSW 1   Clear   63 55     74%     29.98        
Jun 11 20:07 SSW 3   Clear   63 54     72%     29.96        
Jun 11 19:22 SW 4   Clear   64 55     72%     29.96        
Jun 11 19:07 WSW 3   Clear   64 54     71%     29.96        
Jun 11 15:07 SSW 6   Clear   71 56     59%   71 29.93        
Jun 11 14:53 SE 6   Clear   70 56     61%     29.93        
Jun 11 12:07 SE 5   Clear   69 58     67%     29.96        
Jun 11 11:06 SSE 4   Clear   65 59     81%              
Jun 11 10:51 SSW 4   Clear   63 57     82%     29.95        
Jun 11 10:36 SSW 2   Clear   65 58     79%     29.95        
Jun 11 09:06 SSW 1   Clear   61 56     85%     29.94        
Jun 11 08:51 Calm   Clear   61 56     85%     29.93        
Jun 11 08:36 Calm   Clear   61 57     86%     29.93        
Jun 11 06:36 Calm   Clear   59 55     88%     29.91        
Jun 11 01:35 ESE 1   Clear   61 53     76%     29.9        
Jun 11 01:20 SW 1   Clear   61 54     77%     29.9        
Jun 10 22:20 S 2   Clear   62 56     80%     29.91        
Jun 10 20:50 SW 1   Clear   62 56     80%     29.89        
Jun 10 20:05 SSW 3   Clear   63 56     78%     29.88        
Jun 10 18:20 SW 1   Clear   66 56     69%     29.88        
Jun 10 16:20 SSW 5   Clear   69 57     65%     29.9        
Jun 10 13:20 SW 7   Clear   72 60     65%   72 29.91        
Jun 10 08:34 SW 1   Clear   64 59     84%     29.92        
Jun 10 04:33 S 1   Clear   61 58     91%     29.9        
Jun 09 18:33 SSW 3   Clear   70 61     74%     29.91        
Jun 09 14:03 NW 3   Clear   75 58     56%   75 29.95        
Jun 09 11:47 WSW 4   Clear   71 58     64%   71 29.98        
Jun 09 10:32 SW 1   Clear   69 59     70%     29.98        
Jun 09 08:32 Calm   Clear   63 57     82%     29.98        
Jun 09 01:01 Calm   Clear   60 55     83%     29.97        
Jun 08 22:46 Calm   Clear   62 53     72%     29.98        
Jun 08 21:16 Calm   Clear   63 57     82%     29.98        
Jun 08 20:01 Calm   Clear   65 58     77%     29.97        
Jun 08 18:01 WSW 5   Clear   68 58     71%     29.96        
Jun 08 17:45 WSW 3   Clear   70 59     67%     29.96        
Jun 08 17:31 WNW 2   Clear   72 60     65%   72 29.96        
Jun 08 16:45 WNW 3   Clear   75 60     60%   75 29.97        
Jun 08 15:45 W 3   Clear   75 60     59%   75 29.99        
Jun 08 14:15 WSW 3   Clear   74 60     61%   74 30.02        
Jun 08 14:00 N 1   Clear   75 60     59%   75 30.02        
Jun 08 12:00 WSW 1   Clear   67 59     75%     30.06        
Jun 08 09:13 WSW 1   Clear   64 59     83%              
Jun 08 05:29 Calm   Clear   61 57     87%     30.01        
Jun 08 01:44 SSW 1   Clear   61 57     87%     30.01        
Jun 08 00:43 SSW 2   Clear   61 57     88%              
Jun 07 19:28 W 1   Clear   64 59     83%     29.98        
Jun 07 17:13 SSW 3   Clear   67 60     77%              
Jun 07 15:28 W 1   Clear   69 61     75%     29.97        
Jun 07 14:58 S 4   Clear   68 61     77%     29.98        
Jun 07 14:28 SSW 2   Clear   67 60     79%     29.99        
Jun 07 13:58 WSW 3   Clear   67 61     81%     29.99        
Jun 07 09:12 WSW 1   Clear   61 60     95%     29.98        
Jun 07 06:57 WSW 1   Clear   60 58     94%     29.96        
Jun 07 06:12 Calm   Clear   60 58     94%     29.95        
Jun 07 05:27 Calm   Clear   60 58     93%              
Jun 06 13:11 W 1   Clear   68 61     78%     29.98        
Jun 06 12:56 N 1   Clear   67 61     80%     29.98        
Jun 06 11:11 WSW 2   Clear   64 59     85%     29.98        
Jun 06 05:10 Calm   Clear   62 58     87%              
Jun 06 02:54 Calm   Clear   63 59     86%     29.92        
Jun 06 01:24 Calm   Clear   63 59     86%     29.92        
Jun 06 01:09 SSW 1   Clear   63 59     86%     29.92        
Jun 06 00:24 W 1   Clear   63 59     86%     29.93        
Jun 05 23:24 Calm   Clear   63 59     86%     29.93        
Jun 05 23:09 SW 1   Clear   63 58     85%     29.94        
Jun 05 19:54 WSW 2   Clear   64 58     82%     29.91        
Jun 05 16:39 SSW 3   Clear   71 61     70%   71 29.88